Location: El Limón
(10.3059°N, 67.6321°W)
Time: 14:39:17
(UTC+00:00)

SL-24 R/B - RUBIN 2 - Pass Details

Date: 14 April 2024
Orbit: 568 x 1023 km, 64.6° (Epoch: 27 May)

Event Time Altitude Azimuth Distance (km) Brightness Sun altitude
Exits shadow 08:50:41 25° 190° (S) 1,453 5.2 -22.3°
Maximum altitude 08:53:39 70° 111° (ESE) 829 4.2 -21.6°
Drops below altitude 10° 08:59:22 10° 28° (NNE) 2,498 7.2 -20.3°
Sets 09:02:02 0° 26° (NNE) 3,506 8.0 -19.6°
